FENGYUN 1C DEB

Satellite information

Favourite Embed

Satellite Type and Status

DEBRISIN ORBIT

Key statistics

Satellite FENGYUN 1C DEB at a glance.

Uptime

9715

Days in orbit

Revolutions

≈ 14.3

Per day

Orbit

SSO

Sun Synchronous Orbit

Inclination

98.8

Latest

Satellite identification and parameters

Extended collection of information and parameters for FENGYUN 1C DEB.

Object identification

Identified? True

Debris? True

Object name: FENGYUN 1C DEB

International designator: 1999-025EYH

Object number (NORAD): 41830

Object ID (CCSDS): 41830

Country: PEOPLES REPUBLIC OF CHINA (PRC)

Current information (Y/N): Y

RCS size: SMALL

Orbital parameters

Period: 100.949 minutes

Inclination: 98.7524 deg

SMA: 7181.738 km

Apoapsis: 842.905 km

Periapsis: 764.301 km

RAAN: 59.163 deg

Eccentricy: 0.00547252

Argument of periapsis: 215.4795 deg

Mean anomaly: 144.2741 deg

Mean motion: 14.26456086 rev/day

Mean motion (dot): 0.0000616 rev/day2

B* drag term: 0.0025350367 1/REarth

Two-line elements (TLE)

Creation date: Dec. 13, 2025, 5:47 p.m.

Reference frame: TEME

Reference center: EARTH

Epoch: Dec. 13, 2025, 4:21 a.m. UTC

TLE line 0: 0 FENGYUN 1C DEB

TLE line 1: 1 41830U 99025EYH 25347.18160862 .00006160 00000-0 25350-2 0 9994

TLE line 2: 2 41830 98.7524 59.1630 0054725 215.4795 144.2741 14.26456086472809

Live tracking on map

Real-time ground track for satellite FENGYUN 1C DEB.

In-orbit conjunctions

A list of the most updated potential collisions computed for object FENGYUN 1C DEB.

Target Orbit TCA Probability of collision Miss distance Type
PSLV R/B LEO 2025-12-07 13:44:46 0.0001299242 943.0 (m) ROCKET BODY
SL-16 DEB LEO 2024-11-14 16:56:13 0.0001635352 937.0 (m) DEBRIS

Associated space launch

Chinese polar orbiting meteorological satellite

FENGYUN 1C DEB was lifted into orbit during the mission ‘Long March 4B | Feng Yun 1C’, on board a Long March 4B space rocket.

The launch took place on May 10, 1999, 1:33 a.m. from Launch Complex 7.

For more information about the launch, click the button.

Launch to space Long March 4B | Feng Yun 1C
Long March 4B | Feng Yun 1C

Agency: N/A

Status: Launch Successful

Launch date: May 10, 1999, 1:33 a.m. UTC

Rocket: Long March 4B

Launch pad: Launch Complex 7

Location: Taiyuan Satellite Launch Center, People's Republic of China

...

Latest news about this satellite

There are no fresh news available about this satellite. Check back as we update our databases every day.


Newsletter sign-up

Weekly statistics, charts and insights to help you stay on top of the space industry.